Back to catalog

COSMOS 2300

AliveNavigationPO
NORAD 23442·PAYLOAD·🇷🇺 Russia

Launched Dec 26, 1994 from Plesetsk Cosmodrome

Loading…

Next Passes (next 24 hours)

TLE

FreshSource: Space-Track

Epoch: Sep 14, 2026, 10:06 UTC

1 23442U 94086B   26257.42117970 -.00000003  00000-0 -75593-4 0  9993
2 23442  82.5580 246.6315 0003331  54.7316  99.3056 12.62808638461858

Track COSMOS 2300 in real time with AllMySat

Download on the App Store